Regional Weather Roundup
Issued by NWS Albany, NY

Home | Current Version | Previous Version | Text Only | Print | Product List | Glossary On
Versions: 1 2 3 4 5 6 7 8 9 10 11 12 13 14 15 16 17 18 19 20 21 22 23 24 25 26 27 28 29 30 31 32 33 34 35 36 37 38 39 40 41 42 43 44 45 46 47 48 49 50
000
ASUS41 KALY 232010
RWRALY

NEW YORK STATE HOURLY WEATHER ROUNDUP
NATIONAL WEATHER SERVICE ALBANY NY
400 PM EDT TUE OCT 23 2018

NOTE: "FAIR" INDICATES FEW OR NO CLOUDS BELOW 12,000 FEET WITH NO
SIGNIFICANT WEATHER AND/OR NO OBSTRUCTIONS TO VISIBILITY.

NYZ032-033-038>043-046>054-057>066-NYZ062>081-082-084-232100-
EAST


CITY           SKY/WX    TMP DP  RH WIND       PRES   REMARKS
ALBANY         PTSUNNY   57  39  51 S7        29.88F
GLENS FALLS    FAIR      51  42  71 NE7       29.90F
POUGHKEEPSIE   LGT RAIN  56  41  57 SW24G36   29.92R
NEWBURGH       PTSUNNY   52  46  82 W8        29.92R
MONTGOMERY     FAIR      54  45  71 NW3       29.88S
WHITE PLAINS   FAIR      61  36  39 SW8       29.90S
ISLIP          FAIR      62  42  47 SW15      29.92S
NEW YORK CITY  FAIR      65  35  33 SW12      29.90F
CENTRAL PARK   FAIR      62  38  40 MISG      29.93F
$$

NYZ005>009-017-018-044>046-055-056-232100-
CENTRAL


CITY           SKY/WX    TMP DP  RH WIND       PRES   REMARKS
FULTON         CLOUDY    48  40  73 SW8       29.93R
SYRACUSE       LGT RAIN  48  44  86 W12       29.94R
ROME           LGT RAIN  47  46  97 W5        29.94R
ELMIRA         PTSUNNY   51  38  60 NW17G24   29.96R
BINGHAMTON     FAIR      45  38  76 NW12G20   29.92R
MONTICELLO     LGT RAIN  54  35  48 W13G18    29.90S
$$

NYZ026>034-041>043-087-232100-
NORTH


CITY           SKY/WX    TMP DP  RH WIND       PRES   REMARKS
WATERTOWN      CLOUDY    50  41  71 W7        29.92R
FORT DRUM      NOT AVBL
OGDENSBURG     FAIR      49  41  72 NE7       29.93S
MASSENA        CLOUDY    49  40  71 E13       29.96R
SARANAC LAKE   CLOUDY    38  37  97 NE6       29.90S WCI  33
PLATTSBURGH    RAIN      43  40  89 CALM      29.97S FOG
$$

NYZ001>004-010>016-019>021-085-232100-
WEST


CITY           SKY/WX    TMP DP  RH WIND       PRES   REMARKS
NIAGARA FALLS  PTSUNNY   48  41  76 W13       29.99R
BUFFALO        PTSUNNY   47  42  83 NW7       29.99R
DUNKIRK        LGT RAIN  50  42  74 W15G24    30.03S
JAMESTOWN      CLOUDY    44  40  85 NW13      30.03R
WELLSVILLE     CLOUDY    43  38  82 NW17G26   29.99R
ROCHESTER      PTSUNNY   49  45  86 W15       29.95R
PENN YAN       PTSUNNY   48  38  68 VRB7      29.96R
$$

             KEY
       WCI = WIND CHILL INDEX
       VSB = VISIBILITY
       HX  = HEAT INDEX
$$



USA.gov is the U.S. government's official web portal to all federal, state and local government web resources and services.